GSAT0204 (GALILEO 8)

Last updated on Thu Oct 10 2024 00:02:28 GMT+0000 (Coordinated Universal Time)

1 40545U 15017B 24282.96761633 -.00000078 00000+0 00000+0 0 9995 2 40545 56.9252 358.3942 0004824 233.0544 126.9567 1.70475838 21745
UTC large
Height (km)
Speed (km/s)
/
Latitude / Longitude
Inclination (degrees)
Orbital Period (minutes)
Azimuth
Elevation
Range (km)
Doppler Factor

Next 0 passes for location: London (51.5072 / 0.1276)

Sorry there are no passes over London.